Вернуться в каталог

OPS 9432

DSCS 2-2

АктивенВоенныеGEO
NORAD 5588·PAYLOAD·🇺🇸 United States

Запущен Nov 3, 1971 с Cape Canaveral Space Force Station

Loading…

TLE

СвежийSource: Space-Track

Эпоха: Sep 14, 2026, 14:17 UTC

1 05588U 71095B   26257.59546777 -.00000312  00000-0  00000-0 0  9997
2 05588   1.3318 251.7641 0002688  46.5790  12.3924  1.00161951 48260

Отслеживайте OPS 9432 в реальном времени с AllMySat

Download on the App Store